Regional Weather Roundup
Issued by NWS Kansas City/Pleasant Hill, MO

Home | Current Version | Previous Version | Graphics & Text | Print | Product List | Glossary Off
Versions: 1 2 3 4 5 6 7 8 9 10 11 12 13 14 15 16 17 18 19 20 21 22 23 24 25 26 27 28 29 30 31 32 33 34 35 36 37 38 39 40 41 42 43 44 45 46 47 48 49 50

000
ASUS43 KEAX 250710
RWREAX

WEATHER ROUNDUP FOR EASTERN KANSAS AND NORTHWEST MISSOURI
NATIONAL WEATHER SERVICE KANSAS CITY/PLEASANT HILL MO
200 AM CDT MON JUL 25 2016

KSZ040-057-103>105-MOZ028-029-037-043-250800-
...KANSAS CITY METROPOLITAN AREA...

CITY           SKY/WX    TMP DP  RH WIND       PRES   REMARKS
K.C. INTL      CLOUDY    75  71  87 N10       29.99S
K.C. DOWNTOWN  CLOUDY    80  70  71 N7        29.96S
LEES SUMMIT    CLOUDY    76  71  85 N5        29.98F
OLATHE - IXD   CLOUDY    78  71  79 N8        29.98F
OLATHE - OJC   CLOUDY    78  71  79 NW3       29.99S
LAWRENCE       CLOUDY    75  70  84 NW5       29.98S

$$

MOZ001>008-011>017-020>025-030>033-038>040-044>046-053-054-250800-
...NORTHERN AND CENTRAL MISSOURI...

CITY           SKY/WX    TMP DP  RH WIND       PRES   REMARKS
ST. JOSEPH     CLOUDY    69  67  93 N7        30.00F
MOSBY          CLOUDY    75  70  83 N5        29.98S
WHITEMAN AFB   CLOUDY    70  70 100 E5        29.97R
CLINTON        CLOUDY    73  72  94 N7        29.97R
SEDALIA        CLOUDY    74  71  91 N6        30.00R
WARSAW         NOT AVBL
CHILLICOTHE      N/A     75  67  76 N5        30.01R
KIRKSVILLE     CLOUDY    75  67  76 N8        30.03S

$$

MOZ041-047>049-056>058-063>065-088>090-097-250800-
...EASTERN AND SOUTHERN MISSOURI...

CITY           SKY/WX    TMP DP  RH WIND       PRES   REMARKS
ST. LOUIS INTL CLOUDY    78  72  81 SE17      29.97R THUNDER
SPIRIT OF STL  CLOUDY    81  74  79 CALM      29.94S THUNDER
COLUMBIA       LGT RAIN  72  70  93 SE9       30.02R
JEFFERSON CITY LGT RAIN  75  72  90 E7        30.00F
ROLLA          LGT RAIN  73  69  87 NW12      30.00F
OSAGE BEACH    CLOUDY    77  71  82 E7        29.99S
SPRINGFIELD    PTCLDY    80  74  81 S5        29.98R
BRANSON        MOCLDY    77  72  83 CALM      30.00S
JOPLIN         PTCLDY    82  72  71 S10       29.94F
WEST PLAINS    PTCLDY    77  72  84 CALM      30.02R

$$

IAZ060-094-KSZ022-034>040-054-083-096-NEZ052-066-093-250800-
...KANSAS...SOUTHEAST NEBRASKA AND IOWA...

CITY           SKY/WX    TMP DP  RH WIND       PRES   REMARKS
TOPEKA         CLOUDY    75  69  81 NW3       30.00R
MANHATTAN      TSTM      75  67  76 NE8       29.99F
EMPORIA        CLOUDY    78  67  68 E6        29.97F
CHANUTE        CLEAR     80  74  81 CALM      29.93F
WICHITA        CLOUDY    85  71  63 E3        29.94F HX  90
OMAHA          MOCLDY    70  65  84 N7        30.05F
LINCOLN        CLOUDY    66  64  93 NE5       30.07F
FALLS CITY     CLEAR     69  66  90 N5        30.02F
LAMONI         CLOUDY    72  68  87 NE5       30.04R
DES MOINES     PTCLDY    73  64  73 N8        30.04S

$$




USA.gov is the U.S. government's official web portal to all federal, state and local government web resources and services.